Time,TemperatureF,DewpointF,PressureIn,WindDirection,WindDirectionDegrees,WindSpeedMPH,WindSpeedGustMPH,Humidity,HourlyPrecipIn,Conditions,Clouds,dailyrainin,SoftwareType,DateUTC
2013-02-02 00:00:00,20.0,-99.9,-100.00,WSW,253,6.0,11.0,-999,-99.99,,,-99.99,,2013-02-02 07:00:00,
2013-02-02 00:32:00,20.0,-99.9,-100.00,WSW,253,6.0,11.0,-999,-99.99,,,-99.99,,2013-02-02 07:32:00,
2013-02-02 00:42:00,20.0,-99.9,-100.00,WSW,253,6.0,11.0,-999,-99.99,,,-99.99,,2013-02-02 07:42:00,
2013-02-02 00:52:00,20.0,-99.9,-100.00,WSW,253,6.0,11.0,-999,-99.99,,,-99.99,,2013-02-02 07:52:00,
2013-02-02 01:00:00,20.0,-99.9,-100.00,WSW,253,6.0,10.0,-999,-99.99,,,-99.99,,2013-02-02 08:00:00,
2013-02-02 01:32:00,20.0,-99.9,-100.00,WSW,253,6.0,10.0,-999,-99.99,,,-99.99,,2013-02-02 08:32:00,
2013-02-02 01:42:00,20.0,-99.9,-100.00,WSW,253,6.0,10.0,-999,-99.99,,,-99.99,,2013-02-02 08:42:00,
2013-02-02 01:53:00,20.0,-99.9,-100.00,WSW,253,6.0,10.0,-999,-99.99,,,-99.99,,2013-02-02 08:53:00,
2013-02-02 02:00:00,20.0,-99.9,-100.00,WSW,251,5.0,10.0,-999,-99.99,,,-99.99,,2013-02-02 09:00:00,
2013-02-02 02:32:00,20.0,-99.9,-100.00,WSW,251,5.0,10.0,-999,-99.99,,,-99.99,,2013-02-02 09:32:00,
2013-02-02 02:42:00,20.0,-99.9,-100.00,WSW,251,5.0,10.0,-999,-99.99,,,-99.99,,2013-02-02 09:42:00,
2013-02-02 02:52:00,20.0,-99.9,-100.00,WSW,251,5.0,10.0,-999,-99.99,,,-99.99,,2013-02-02 09:52:00,
2013-02-02 03:00:00,20.0,-99.9,-100.00,WSW,256,5.0,8.0,-999,-99.99,,,-99.99,,2013-02-02 10:00:00,
2013-02-02 03:32:00,20.0,-99.9,-100.00,WSW,256,5.0,8.0,-999,-99.99,,,-99.99,,2013-02-02 10:32:00,
2013-02-02 03:42:00,20.0,-99.9,-100.00,WSW,256,5.0,8.0,-999,-99.99,,,-99.99,,2013-02-02 10:42:00,
2013-02-02 03:52:00,20.0,-99.9,-100.00,WSW,256,5.0,8.0,-999,-99.99,,,-99.99,,2013-02-02 10:52:00,
2013-02-02 04:00:00,21.0,-99.9,-100.00,West,264,6.0,8.0,-999,-99.99,,,-99.99,,2013-02-02 11:00:00,
2013-02-02 04:32:00,21.0,-99.9,-100.00,West,264,6.0,8.0,-999,-99.99,,,-99.99,,2013-02-02 11:32:00,
2013-02-02 04:42:00,21.0,-99.9,-100.00,West,264,6.0,8.0,-999,-99.99,,,-99.99,,2013-02-02 11:42:00,
2013-02-02 04:52:00,21.0,-99.9,-100.00,West,264,6.0,8.0,-999,-99.99,,,-99.99,,2013-02-02 11:52:00,
2013-02-02 05:00:00,21.0,-99.9,-100.00,West,260,5.0,7.0,-999,-99.99,,,-99.99,,2013-02-02 12:00:00,
2013-02-02 05:32:00,21.0,-99.9,-100.00,West,260,5.0,7.0,-999,-99.99,,,-99.99,,2013-02-02 12:32:00,
2013-02-02 05:42:00,21.0,-99.9,-100.00,West,260,5.0,7.0,-999,-99.99,,,-99.99,,2013-02-02 12:42:00,
2013-02-02 05:53:00,21.0,-99.9,-100.00,West,260,5.0,7.0,-999,-99.99,,,-99.99,,2013-02-02 12:53:00,
2013-02-02 06:00:00,21.0,-99.9,-100.00,WSW,256,5.0,8.0,-999,-99.99,,,-99.99,,2013-02-02 13:00:00,
2013-02-02 06:33:00,21.0,-99.9,-100.00,WSW,256,5.0,8.0,-999,-99.99,,,-99.99,,2013-02-02 13:33:00,
2013-02-02 06:43:00,21.0,-99.9,-100.00,WSW,256,5.0,8.0,-999,-99.99,,,-99.99,,2013-02-02 13:43:00,
2013-02-02 06:52:00,21.0,-99.9,-100.00,WSW,256,5.0,8.0,-999,-99.99,,,-99.99,,2013-02-02 13:52:00,
2013-02-02 07:00:00,23.0,-99.9,-100.00,WSW,256,6.0,9.0,-999,-99.99,,,-99.99,,2013-02-02 14:00:00,
2013-02-02 07:33:00,23.0,-99.9,-100.00,WSW,256,6.0,9.0,-999,-99.99,,,-99.99,,2013-02-02 14:33:00,
2013-02-02 07:42:00,23.0,-99.9,-100.00,WSW,256,6.0,9.0,-999,-99.99,,,-99.99,,2013-02-02 14:42:00,
2013-02-02 07:52:00,23.0,-99.9,-100.00,WSW,256,6.0,9.0,-999,-99.99,,,-99.99,,2013-02-02 14:52:00,
2013-02-02 08:00:00,23.0,-99.9,-100.00,West,260,5.0,8.0,-999,-99.99,,,-99.99,,2013-02-02 15:00:00,
2013-02-02 08:33:00,23.0,-99.9,-100.00,West,260,5.0,8.0,-999,-99.99,,,-99.99,,2013-02-02 15:33:00,
2013-02-02 08:42:00,23.0,-99.9,-100.00,West,260,5.0,8.0,-999,-99.99,,,-99.99,,2013-02-02 15:42:00,
2013-02-02 08:52:00,23.0,-99.9,-100.00,West,260,5.0,8.0,-999,-99.99,,,-99.99,,2013-02-02 15:52:00,
2013-02-02 09:00:00,27.0,-99.9,-100.00,West,263,3.0,6.0,-999,-99.99,,,-99.99,,2013-02-02 16:00:00,
2013-02-02 09:32:00,27.0,-99.9,-100.00,West,263,3.0,6.0,-999,-99.99,,,-99.99,,2013-02-02 16:32:00,
2013-02-02 09:43:00,27.0,-99.9,-100.00,West,263,3.0,6.0,-999,-99.99,,,-99.99,,2013-02-02 16:43:00,
2013-02-02 09:52:00,27.0,-99.9,-100.00,West,263,3.0,6.0,-999,-99.99,,,-99.99,,2013-02-02 16:52:00,
2013-02-02 10:00:00,31.0,-99.9,-100.00,WSW,240,1.0,4.0,-999,-99.99,,,-99.99,,2013-02-02 17:00:00,
2013-02-02 10:33:00,31.0,-99.9,-100.00,WSW,240,1.0,4.0,-999,-99.99,,,-99.99,,2013-02-02 17:33:00,
2013-02-02 10:42:00,31.0,-99.9,-100.00,WSW,240,1.0,4.0,-999,-99.99,,,-99.99,,2013-02-02 17:42:00,
2013-02-02 10:53:00,31.0,-99.9,-100.00,WSW,240,1.0,4.0,-999,-99.99,,,-99.99,,2013-02-02 17:53:00,
2013-02-02 11:00:00,32.0,-99.9,-100.00,WSW,238,3.0,5.0,-999,-99.99,,,-99.99,,2013-02-02 18:00:00,
2013-02-02 11:32:00,32.0,-99.9,-100.00,WSW,238,3.0,5.0,-999,-99.99,,,-99.99,,2013-02-02 18:32:00,
2013-02-02 11:42:00,32.0,-99.9,-100.00,WSW,238,3.0,5.0,-999,-99.99,,,-99.99,,2013-02-02 18:42:00,
2013-02-02 11:52:00,32.0,-99.9,-100.00,WSW,238,3.0,5.0,-999,-99.99,,,-99.99,,2013-02-02 18:52:00,
2013-02-02 12:00:00,35.0,-99.9,-100.00,SSE,163,1.0,3.0,-999,-99.99,,,-99.99,,2013-02-02 19:00:00,
2013-02-02 12:33:00,35.0,-99.9,-100.00,SSE,163,1.0,3.0,-999,-99.99,,,-99.99,,2013-02-02 19:33:00,
2013-02-02 12:42:00,35.0,-99.9,-100.00,SSE,163,1.0,3.0,-999,-99.99,,,-99.99,,2013-02-02 19:42:00,
2013-02-02 12:52:00,35.0,-99.9,-100.00,SSE,163,1.0,3.0,-999,-99.99,,,-99.99,,2013-02-02 19:52:00,
2013-02-02 13:00:00,35.0,-99.9,-100.00,South,188,1.0,3.0,-999,-99.99,,,-99.99,,2013-02-02 20:00:00,
2013-02-02 13:32:00,35.0,-99.9,-100.00,South,188,1.0,3.0,-999,-99.99,,,-99.99,,2013-02-02 20:32:00,
2013-02-02 13:42:00,35.0,-99.9,-100.00,South,188,1.0,3.0,-999,-99.99,,,-99.99,,2013-02-02 20:42:00,
2013-02-02 13:52:00,35.0,-99.9,-100.00,South,188,1.0,3.0,-999,-99.99,,,-99.99,,2013-02-02 20:52:00,
2013-02-02 14:00:00,35.0,-99.9,-100.00,SW,228,2.0,4.0,-999,-99.99,,,-99.99,,2013-02-02 21:00:00,
2013-02-02 14:32:00,35.0,-99.9,-100.00,SW,228,2.0,4.0,-999,-99.99,,,-99.99,,2013-02-02 21:32:00,
2013-02-02 14:43:00,35.0,-99.9,-100.00,SW,228,2.0,4.0,-999,-99.99,,,-99.99,,2013-02-02 21:43:00,
2013-02-02 14:52:00,35.0,-99.9,-100.00,SW,228,2.0,4.0,-999,-99.99,,,-99.99,,2013-02-02 21:52:00,
2013-02-02 15:00:00,36.0,-99.9,-100.00,SW,218,1.0,4.0,-999,-99.99,,,-99.99,,2013-02-02 22:00:00,
2013-02-02 15:32:00,36.0,-99.9,-100.00,SW,218,1.0,4.0,-999,-99.99,,,-99.99,,2013-02-02 22:32:00,
2013-02-02 15:42:00,36.0,-99.9,-100.00,SW,218,1.0,4.0,-999,-99.99,,,-99.99,,2013-02-02 22:42:00,
2013-02-02 15:52:00,36.0,-99.9,-100.00,SW,218,1.0,4.0,-999,-99.99,,,-99.99,,2013-02-02 22:52:00,
2013-02-02 16:00:00,36.0,-99.9,-100.00,South,179,1.0,2.0,-999,-99.99,,,-99.99,,2013-02-02 23:00:00,
2013-02-02 16:33:00,36.0,-99.9,-100.00,South,179,1.0,2.0,-999,-99.99,,,-99.99,,2013-02-02 23:33:00,
2013-02-02 16:42:00,36.0,-99.9,-100.00,South,179,1.0,2.0,-999,-99.99,,,-99.99,,2013-02-02 23:42:00,
2013-02-02 16:52:00,36.0,-99.9,-100.00,South,179,1.0,2.0,-999,-99.99,,,-99.99,,2013-02-02 23:52:00,
2013-02-02 17:00:00,30.0,-99.9,-100.00,SE,143,3.0,4.0,-999,-99.99,,,-99.99,,2013-02-03 00:00:00,
2013-02-02 17:32:00,30.0,-99.9,-100.00,SE,143,3.0,4.0,-999,-99.99,,,-99.99,,2013-02-03 00:32:00,
2013-02-02 17:42:00,30.0,-99.9,-100.00,SE,143,3.0,4.0,-999,-99.99,,,-99.99,,2013-02-03 00:42:00,
2013-02-02 17:52:00,30.0,-99.9,-100.00,SE,143,3.0,4.0,-999,-99.99,,,-99.99,,2013-02-03 00:52:00,
2013-02-02 18:00:00,30.0,-99.9,-100.00,SW,230,2.0,5.0,-999,-99.99,,,-99.99,,2013-02-03 01:00:00,
2013-02-02 18:32:00,30.0,-99.9,-100.00,SW,230,2.0,5.0,-999,-99.99,,,-99.99,,2013-02-03 01:32:00,
2013-02-02 18:42:00,30.0,-99.9,-100.00,SW,230,2.0,5.0,-999,-99.99,,,-99.99,,2013-02-03 01:42:00,
2013-02-02 18:52:00,30.0,-99.9,-100.00,SW,230,2.0,5.0,-999,-99.99,,,-99.99,,2013-02-03 01:52:00,
2013-02-02 19:00:00,30.0,-99.9,-100.00,WSW,249,2.0,4.0,-999,-99.99,,,-99.99,,2013-02-03 02:00:00,
2013-02-02 19:32:00,30.0,-99.9,-100.00,WSW,249,2.0,4.0,-999,-99.99,,,-99.99,,2013-02-03 02:32:00,
2013-02-02 19:42:00,30.0,-99.9,-100.00,WSW,249,2.0,4.0,-999,-99.99,,,-99.99,,2013-02-03 02:42:00,
2013-02-02 19:53:00,30.0,-99.9,-100.00,WSW,249,2.0,4.0,-999,-99.99,,,-99.99,,2013-02-03 02:53:00,
2013-02-02 20:00:00,29.0,-99.9,-100.00,East,79,2.0,6.0,-999,-99.99,,,-99.99,,2013-02-03 03:00:00,
2013-02-02 20:32:00,29.0,-99.9,-100.00,East,79,2.0,6.0,-999,-99.99,,,-99.99,,2013-02-03 03:32:00,
2013-02-02 20:42:00,29.0,-99.9,-100.00,East,79,2.0,6.0,-999,-99.99,,,-99.99,,2013-02-03 03:42:00,
2013-02-02 20:52:00,29.0,-99.9,-100.00,East,79,2.0,6.0,-999,-99.99,,,-99.99,,2013-02-03 03:52:00,
2013-02-02 21:00:00,30.0,-99.9,-100.00,SW,236,4.0,6.0,-999,-99.99,,,-99.99,,2013-02-03 04:00:00,
2013-02-02 21:32:00,30.0,-99.9,-100.00,SW,236,4.0,6.0,-999,-99.99,,,-99.99,,2013-02-03 04:32:00,
2013-02-02 21:42:00,30.0,-99.9,-100.00,SW,236,4.0,6.0,-999,-99.99,,,-99.99,,2013-02-03 04:42:00,
2013-02-02 21:52:00,30.0,-99.9,-100.00,SW,236,4.0,6.0,-999,-99.99,,,-99.99,,2013-02-03 04:52:00,
2013-02-02 22:00:00,30.0,-99.9,-100.00,SW,235,3.0,8.0,-999,-99.99,,,-99.99,,2013-02-03 05:00:00,
2013-02-02 22:32:00,30.0,-99.9,-100.00,SW,235,3.0,8.0,-999,-99.99,,,-99.99,,2013-02-03 05:32:00,
2013-02-02 22:42:00,30.0,-99.9,-100.00,SW,235,3.0,8.0,-999,-99.99,,,-99.99,,2013-02-03 05:42:00,
2013-02-02 22:53:00,30.0,-99.9,-100.00,SW,235,3.0,8.0,-999,-99.99,,,-99.99,,2013-02-03 05:53:00,
2013-02-02 23:00:00,29.0,-99.9,-100.00,SSW,213,4.0,8.0,-999,-99.99,,,-99.99,,2013-02-03 06:00:00,
2013-02-02 23:32:00,29.0,-99.9,-100.00,SSW,213,4.0,8.0,-999,-99.99,,,-99.99,,2013-02-03 06:32:00,
2013-02-02 23:42:00,29.0,-99.9,-100.00,SSW,213,4.0,8.0,-999,-99.99,,,-99.99,,2013-02-03 06:42:00,
2013-02-02 23:52:00,29.0,-99.9,-100.00,SSW,213,4.0,8.0,-999,-99.99,,,-99.99,,2013-02-03 06:52:00,